This demonstration page uses our WeatherBlox Daily Observations layout. Learn more.

40.92945, -100.16068

Hourly Observations for February 1, 2018

Temp ( °F °C ) Dew Point ( °F °C ) Humidity (%) Winds ( mph kmh ) Pressure ( in mb ) Visibility ( mi km ) Precip ( " mm )
12:15 am 00:15 Cloudy 34 1.1 29 -1.6 82 82 NW 6 9 30.12 1020 10 16.0934 0 0
12:35 am 00:35 Cloudy 34 1 29 -1.7 82 82 WNW 7 11 30.12 1020 10 16.0934 0 0
12:55 am 00:55 Cloudy 33 0.8 29 -1.6 84 84 WNW 7 11 30.18 1022 10 16.0934 0 0
1:15 am 01:15 Cloudy 33 0.8 29 -1.9 82 82 NW 6 9 30.18 1022 10 16.0934 0 0
1:35 am 01:35 Cloudy 34 1 28 -2.1 80 80 NNW 7 11 30.18 1022 10 16.0934 0 0
1:55 am 01:55 Cloudy 34 1 28 -2.1 80 80 N 9 15 30.21 1023 10 16.0934 0 0
2:15 am 02:15 Cloudy 33 0.6 28 -2 83 83 N 10 17 30.21 1023 10 16.0934 0 0
2:35 am 02:35 Cloudy with Light Snow 32 0.2 28 -2.3 84 84 NNE 14 22 30.21 1023 10 16.0934 0 0
2:55 am 02:55 Cloudy 32 0 27 -3 80 80 NNE 13 20 30.21 1023 10 16.0934 0 0
3:15 am 03:15 Cloudy 32 -0.1 27 -3 81 81 NNE 14 22 30.21 1023 10 16.0934 0 0
3:35 am 03:35 Cloudy 31 -0.5 26 -3.1 83 83 NNE 10 17 30.24 1024 10 16.0934 0 0
3:55 am 03:55 Cloudy 31 -0.7 26 -3.5 82 82 NNE 12 19 30.24 1024 10 16.0934 0 0
4:15 am 04:15 Cloudy 30 -0.9 25 -3.8 81 81 NNE 15 24 30.24 1024 10 16.0934 0 0
4:35 am 04:35 Mostly Cloudy 30 -1.2 24 -4.4 79 79 NNE 13 20 30.21 1023 10 16.0934 0 0
4:55 am 04:55 Cloudy 29 -1.5 24 -4.5 80 80 NNE 16 26 30.27 1025 10 16.0934 0 0
5:15 am 05:15 Cloudy 28 -2.4 23 -5.1 82 82 NNE 15 24 30.27 1025 10 16.0934 0 0
5:35 am 05:35 Cloudy 26 -3.5 21 -6.2 82 82 NNE 16 26 30.3 1026 10 16.0934 0 0
5:55 am 05:55 Cloudy 24 -4.7 18 -7.6 80 80 NNE 8 13 30.33 1027 10 16.0934 0 0
6:15 am 06:15 Cloudy 23 -5.2 17 -8.3 79 79 NNE 13 20 30.36 1028 10 16.0934 0 0
6:35 am 06:35 Cloudy 22 -5.5 17 -8.5 80 80 NNE 10 17 30.36 1028 10 16.0934 0 0
6:55 am 06:55 Cloudy 22 -5.8 16 -8.8 80 80 N 13 20 30.39 1029 10 16.0934 0 0
7:15 am 07:15 Cloudy 21 -6 16 -9 80 80 NNE 14 22 30.39 1029 10 16.0934 0 0
7:35 am 07:35 Cloudy 21 -6 16 -9 80 80 N 13 20 30.45 1031 10 16.0934 0 0
7:55 am 07:55 Cloudy 21 -6.1 16 -9.1 80 80 N 15 24 30.45 1031 10 16.0934 0 0
8:15 am 08:15 Cloudy 20 -6.4 15 -9.6 78 78 NNE 14 22 30.48 1032 10 16.0934 0 0
8:35 am 08:35 Cloudy 19 -7 13 -10.5 76 76 NNE 10 17 30.48 1032 10 16.0934 0 0
8:55 am 08:55 Cloudy 19 -7 13 -10.4 77 77 NNE 10 17 30.48 1032 10 16.0934 0 0
9:15 am 09:15 Cloudy 20 -6.9 13 -10.6 75 75 NNE 9 15 30.5 1033 10 16.0934 0 0
9:35 am 09:35 Cloudy 19 -7 13 -10.7 75 75 NNE 9 15 30.5 1033 10 16.0934 0 0
9:55 am 09:55 Cloudy 19 -7 12 -11 73 73 NNE 12 19 30.53 1034 10 16.0934 0 0
10:15 am 10:15 Cloudy 20 -6.8 13 -10.8 73 73 NNE 9 15 30.53 1034 10 16.0934 0 0
10:35 am 10:35 Cloudy 20 -6.9 12 -11 73 73 NNE 9 15 30.56 1035 10 16.0934 0 0
10:55 am 10:55 Cloudy 20 -6.5 13 -10.8 72 72 N 10 17 30.56 1035 10 16.0934 0 0
11:15 am 11:15 Cloudy 20 -6.5 12 -11.2 70 70 N 13 20 30.56 1035 10 16.0934 0 0
11:35 am 11:35 Cloudy 21 -6.1 12 -11.1 68 68 NNE 15 24 30.56 1035 10 16.0934 0 0
11:55 am 11:55 Cloudy 20 -6.4 11 -11.8 66 66 N 15 24 30.56 1035 10 16.0934 0 0
12:15 pm 12:15 Cloudy 21 -6.3 11 -11.9 65 65 N 13 20 30.56 1035 10 16.0934 0 0
12:35 pm 12:35 Cloudy 21 -6.3 10 -12.2 63 63 N 14 22 30.56 1035 10 16.0934 0 0
12:55 pm 12:55 Cloudy 20 -6.4 10 -12.2 64 64 N 13 20 30.56 1035 10 16.0934 0 0
1:15 pm 13:15 Cloudy 21 -6.3 10 -12 64 64 N 9 15 30.56 1035 10 16.0934 0 0
1:35 pm 13:35 Cloudy 20 -6.4 11 -11.9 65 65 N 8 13 30.56 1035 10 16.0934 0 0
1:55 pm 13:55 Cloudy 21 -6.1 11 -11.7 65 65 N 8 13 30.56 1035 10 16.0934 0 0
2:15 pm 14:15 Cloudy 21 -6 11 -11.6 65 65 N 7 11 30.53 1034 10 16.0934 0 0
2:35 pm 14:35 Cloudy 21 -6 11 -11.9 63 63 N 6 9 30.56 1035 10 16.0934 0 0
2:55 pm 14:55 Cloudy 22 -5.7 11 -11.6 63 63 NNW 8 13 30.56 1035 10 16.0934 0 0
3:15 pm 15:15 Cloudy 22 -5.8 11 -11.6 64 64 N 3 6 30.56 1035 10 16.0934 0 0
3:35 pm 15:35 Cloudy 22 -5.6 11 -11.4 64 64 N 7 11 30.56 1035 10 16.0934 0 0
3:55 pm 15:55 Cloudy 22 -5.5 12 -11.2 65 65 NW 6 9 30.56 1035 10 16.0934 0 0
4:15 pm 16:15 Cloudy 22 -5.4 12 -10.9 66 66 NW 6 9 30.56 1035 10 16.0934 0 0
4:35 pm 16:35 Cloudy 23 -5.2 12 -10.9 65 65 NW 5 7 30.56 1035 10 16.0934 0 0
4:55 pm 16:55 Cloudy 22 -5.4 12 -10.9 66 66 Calm 30.56 1035 10 16.0934 0 0
5:15 pm 17:15 Cloudy 23 -5.1 13 -10.6 66 66 WNW 3 6 30.56 1035 10 16.0934 0 0
5:35 pm 17:35 Cloudy 23 -5.2 13 -10.6 66 66 Calm 30.56 1035 10 16.0934 0 0
5:55 pm 17:55 Cloudy 39 3.8 30 -1 71 71 NNW 8 13 30 1016 10 16.0934 0 0
6:15 pm 18:15 Cloudy 23 -5 13 -10.3 67 67 WSW 3 6 30.56 1035 10 16.0934 0 0
6:35 pm 18:35 Cloudy 22 -5.3 14 -10 70 70 SSW 7 11 30.56 1035 10 16.0934 0 0
6:55 pm 18:55 Cloudy 23 -5.1 15 -9.4 72 72 S 5 7 30.56 1035 10 16.0934 0 0
7:15 pm 19:15 Cloudy 23 -5 15 -9.5 71 71 S 5 7 30.56 1035 10 16.0934 0 0
7:35 pm 19:35 Cloudy 23 -4.8 15 -9.4 71 71 S 5 7 30.56 1035 10 16.0934 0 0
7:55 pm 19:55 Cloudy 23 -5 15 -9.6 70 70 Calm 30.56 1035 10 16.0934 0 0
8:15 pm 20:15 Mostly Cloudy 22 -5.7 15 -9.5 75 75 Calm 30.56 1035 10 16.0934 0 0
8:35 pm 20:35 Clear 21 -6.1 14 -9.8 75 75 ESE 3 6 30.56 1035 10 16.0934 0 0
8:55 pm 20:55 Mostly Cloudy 22 -5.8 15 -9.4 76 76 Calm 30.56 1035 10 16.0934 0 0
9:15 pm 21:15 Cloudy 23 -5.2 17 -8.6 77 77 S 6 9 30.56 1035 10 16.0934 0 0
9:35 pm 21:35 Cloudy 24 -4.7 16 -8.9 73 73 S 8 13 30.56 1035 10 16.0934 0 0
9:55 pm 21:55 Cloudy 23 -4.8 15 -9.2 72 72 SSE 8 13 30.56 1035 10 16.0934 0 0
10:15 pm 22:15 Cloudy 24 -4.7 16 -8.9 73 73 S 9 15 30.56 1035 10 16.0934 0 0
10:35 pm 22:35 Cloudy 23 -4.8 15 -9.2 72 72 S 9 15 30.56 1035 10 16.0934 0 0
10:55 pm 22:55 Partly Cloudy 23 -5.2 15 -9.3 73 73 S 7 11 30.56 1035 10 16.0934 0 0
11:15 pm 23:15 Mostly Cloudy 23 -5.2 16 -9 75 75 S 8 13 30.56 1035 10 16.0934 0 0
11:35 pm 23:35 Cloudy 23 -5 15 -9.2 73 73 S 7 11 30.56 1035 10 16.0934 0 0
11:55 pm 23:55 Cloudy 23 -4.8 16 -9 73 73 S 8 13 30.56 1035 10 16.0934 0 0

Powered by AerisWeather